Location: Unspecified
(44.4377°N, 88.0525°W)
Time: 12:16:04
(UTC-05:00)

Cosmos 2058 - Visible Passes

Search period start: 29 May 2016 00:00
Search period end: 08 June 2016 00:00
Orbit: 564 x 587 km, 82.5° (Epoch: 28 May)

Date Brightness Start Highest point End Pass type
(mag) Time Alt. Az. Time Alt. Az. Time Alt. Az.
29 May 5.0 00:54:35 17° E 00:54:50 17° E 00:57:35 10° NE visible
29 May 3.6 02:30:49 37° W 02:31:28 40° WNW 02:35:25 10° N visible
30 May 4.6 00:58:15 22° E 00:58:25 22° E 01:01:41 10° NE visible
30 May 4.0 02:34:30 28° W 02:35:13 30° WNW 02:38:55 10° NNW visible
31 May 4.2 01:01:55 29° E 01:02:00 29° E 01:05:38 10° NNE visible
31 May 4.4 02:38:10 22° W 02:38:57 23° WNW 02:42:20 10° NNW visible
01 Jun 3.7 01:05:34 39° E 01:05:36 39° E 01:09:30 10° NNE visible
01 Jun 4.8 02:41:48 17° W 02:42:44 18° WNW 02:45:39 10° NNW visible
02 Jun 3.3 01:09:12 53° E 01:09:14 53° E 01:13:17 10° NNE visible
02 Jun 5.1 02:45:27 13° W 02:46:33 14° WNW 02:48:46 10° NW visible
03 Jun 2.9 01:12:49 72° ESE 01:12:53 72° E 01:17:02 10° NNE visible
03 Jun 5.4 02:49:24 10° W 02:50:22 11° WNW 02:51:19 10° NW visible
04 Jun 2.7 01:16:26 83° WSW 01:16:32 84° W 01:20:42 10° N visible
04 Jun 5.3 23:43:48 11° E 23:43:50 11° E 23:45:07 10° ENE visible
05 Jun 3.0 01:20:02 61° W 01:20:14 62° W 01:24:21 10° N visible
05 Jun 5.0 23:47:23 15° E 23:47:23 15° E 23:49:44 10° NE visible
06 Jun 3.4 01:23:37 45° W 01:23:55 46° WNW 01:27:56 10° N visible
06 Jun 4.7 23:50:57 20° E 23:50:57 20° E 23:53:55 10° NE visible
07 Jun 3.9 01:27:11 33° W 01:27:38 34° WNW 01:31:27 10° N visible
07 Jun 4.3 23:54:30 26° E 23:54:30 26° E 23:57:56 10° NNE visible
